Regional Weather Roundup
Issued by NWS Albany, NY

Home | Current Version | Previous Version | Text Only | Print | Product List | Glossary On
Versions: 1 2 3 4 5 6 7 8 9 10 11 12 13 14 15 16 17 18 19 20 21 22 23 24 25 26 27
000
ASUS41 KALY 231210
RWRALY

NEW YORK STATE HOURLY WEATHER ROUNDUP
NATIONAL WEATHER SERVICE ALBANY NY
800 AM EDT TUE MAY 23 2017

NOTE: "FAIR" INDICATES FEW OR NO CLOUDS BELOW 12,000 FEET WITH NO
SIGNIFICANT WEATHER AND/OR NO OBSTRUCTIONS TO VISIBILITY.

NYZ032-033-038>043-046>054-057>066-NYZ062>081-082-084-231300-
EAST


CITY           SKY/WX    TMP DP  RH WIND       PRES   REMARKS
ALBANY         CLOUDY    54  47  77 N5        29.97F
GLENS FALLS    NOT AVBL
POUGHKEEPSIE   CLOUDY    54  51  90 CALM      29.96S
MONTGOMERY     CLOUDY    57  52  83 CALM      29.96S
WHITE PLAINS   CLOUDY    57  49  74 N5        29.95S
ISLIP          CLOUDY    60  51  72 N12       29.94F
NEW YORK CITY  CLOUDY    60  51  72 NE6       29.95F
CENTRAL PARK   CLOUDY    59  51  75 NE7       29.98F
$$

NYZ005>009-017-018-044>046-055-056-231300-
CENTRAL


CITY           SKY/WX    TMP DP  RH WIND       PRES   REMARKS
FULTON         CLOUDY    52  46  80 VRB3      29.95S
SYRACUSE       PTSUNNY   52  46  80 E5        29.94S
ROME           CLOUDY    50  47  89 SE6       29.98S
ELMIRA         CLOUDY    47  44  90 CALM      29.97F
BINGHAMTON     CLOUDY    53  44  71 W6        29.96F
MONTICELLO     CLOUDY    50  46  87 CALM      29.99R
$$

NYZ026>034-041>043-087-231300-
NORTH


CITY           SKY/WX    TMP DP  RH WIND       PRES   REMARKS
WATERTOWN      SUNNY     55  46  71 SW7       29.93F
FORT DRUM      NOT AVBL
OGDENSBURG     FAIR      56  48  72 SW8       29.92F
MASSENA        SUNNY     55  47  74 SW10      29.92F
SARANAC LAKE   SUNNY     50  46  86 SW8       29.92F
PLATTSBURGH    SUNNY     57  46  66 VRB3      29.92F
$$

NYZ001>004-010>016-019>021-085-231300-
WEST


CITY           SKY/WX    TMP DP  RH WIND       PRES   REMARKS
NIAGARA FALLS  CLOUDY    57  47  69 S9        29.92R
BUFFALO        PTSUNNY   55  47  74 S5        29.93S
DUNKIRK        PTSUNNY   59  48  67 S10       29.93F
JAMESTOWN      MOSUNNY   48  43  81 S3        29.95F
WELLSVILLE     MOSUNNY   51  46  83 CALM      29.98S
ROCHESTER      PTSUNNY   56  47  71 SW7       29.93F
PENN YAN       CLOUDY    51  43  74 SW9       29.95F
$$

             KEY
       WCI = WIND CHILL INDEX
       VSB = VISIBILITY
       HX  = HEAT INDEX
$$




USA.gov is the U.S. government's official web portal to all federal, state and local government web resources and services.